Wind_Speed
38 40 39 38 38 38 35 32 32 33 34 33 30 29 28 27 26 30 36 37 36 35 35 35 33 32 32 33 34 33 32 32 32 32 30 28 27 26 25 23 21 20
38 39 38 36 36 35 32 30 31 33 33 31 29 28 28 27 26 30 34 35 35 36 35 35 34 33 33 34 34 34 34 34 33 33 31 29 28 26 25 24 22 21
36 37 36 36 35 33 31 31 32 33 33 31 30 29 28 27 26 30 34 33 34 35 35 34 33 34 34 35 34 34 35 35 35 34 32 30 29 27 26 25 23 21
35 36 35 34 33 32 31 31 31 32 33 31 29 27 26 27 27 30 34 35 35 35 36 35 33 34 35 35 34 34 35 36 35 34 33 31 30 29 28 25 24 22
34 35 34 33 32 31 31 30 29 29 31 30 27 26 27 29 30 31 34 36 35 34 35 35 33 35 36 35 34 35 36 37 36 34 33 32 31 30 28 26 24 22
33 34 33 32 31 30 30 31 30 31 30 28 26 28 29 31 32 31 32 34 36 36 35 33 34 37 37 35 35 36 36 37 36 35 34 34 33 31 28 27 25 23
32 32 31 30 30 30 30 31 33 34 31 26 26 28 30 32 32 30 30 32 35 36 35 32 34 38 38 37 37 37 37 37 36 36 35 34 33 31 29 28 26 23
30 30 31 31 31 30 30 31 32 33 31 28 27 28 30 33 30 27 28 30 33 36 36 33 34 38 39 38 38 37 36 37 36 36 36 34 32 30 29 28 26 23
28 29 31 32 32 31 31 31 32 32 31 30 29 29 31 32 29 28 29 30 32 35 37 35 35 39 40 39 38 37 36 37 37 35 34 33 32 31 29 27 24 21
27 29 31 33 33 32 32 31 32 32 31 30 30 31 32 33 31 29 29 30 33 36 37 37 37 40 41 39 37 37 36 36 36 35 34 32 32 30 28 25 22 18
27 29 31 34 34 32 32 31 31 31 30 30 31 33 35 34 32 30 31 33 36 37 37 37 38 40 42 40 38 37 36 36 36 35 34 32 31 28 25 22 19 16
28 30 31 34 34 33 32 31 30 30 29 30 32 33 34 33 32 32 34 35 36 36 36 36 38 41 43 41 39 38 37 36 36 35 34 32 29 27 24 21 18 16
28 29 31 33 34 33 32 32 31 31 30 30 31 32 33 33 33 34 35 35 35 34 35 36 39 42 44 42 40 38 38 37 36 34 33 31 28 26 23 20 18 16
27 28 30 32 32 32 32 33 32 32 33 32 32 33 33 31 29 30 31 32 33 33 35 37 40 43 44 42 40 39 38 37 36 34 33 30 27 24 22 20 18 17
26 27 29 31 32 32 33 34 34 33 34 34 34 35 34 31 29 29 28 30 32 33 35 37 41 43 43 42 40 38 37 36 35 34 32 29 26 24 22 20 19 18
26 26 28 30 32 34 34 35 35 34 34 35 34 33 33 32 32 31 29 29 31 34 36 39 41 43 42 41 39 37 36 36 35 33 30 28 26 24 22 21 19 19
26 27 28 30 32 33 34 35 34 33 33 34 35 33 32 32 32 31 29 29 31 33 36 39 42 43 43 41 39 37 36 35 33 31 30 28 25 23 21 20 21 22
27 27 28 29 31 32 33 34 34 33 33 34 35 34 32 31 31 30 29 28 31 33 35 38 42 43 43 41 39 37 35 33 32 31 29 26 24 22 22 23 24 24
28 27 27 28 29 30 32 33 34 33 32 33 33 33 32 30 30 29 28 28 30 33 35 38 41 43 42 40 38 36 35 33 32 29 26 24 23 23 24 25 25 26
27 27 27 28 28 30 32 33 33 31 29 30 32 32 31 29 28 27 26 27 30 33 35 37 40 41 41 40 38 36 34 32 30 28 25 24 24 25 26 27 27 29
27 26 27 27 28 30 31 32 32 30 27 27 29 30 29 28 26 25 25 26 29 32 34 37 39 40 40 39 37 35 33 31 30 28 25 23 25 27 29 29 30 32
25 25 26 27 27 29 30 30 31 31 28 25 26 27 27 26 25 23 23 24 27 30 34 36 38 38 38 37 36 34 33 32 30 26 24 25 28 30 30 31 33 35
22 23 24 25 26 27 28 28 29 29 29 26 25 26 25 24 23 22 22 22 25 29 32 34 36 37 37 36 35 34 33 31 28 25 25 28 31 30 30 33 36 35
20 20 21 22 23 23 24 25 25 26 27 27 26 25 24 23 22 21 20 21 22 25 28 31 34 36 36 36 34 33 31 28 26 27 29 31 31 31 33 37 38 34
17 17 17 18 18 19 20 21 22 23 24 25 24 23 21 20 19 18 18 19 20 23 26 29 31 33 33 33 32 31 29 28 28 30 32 33 33 34 38 40 37 32
14 13 14 14 14 15 16 17 19 20 21 21 20 18 16 15 15 16 16 17 19 21 24 25 27 28 29 29 30 30 29 30 31 33 34 35 36 38 40 38 34 31
Wind_Direction
231 232 232 230 229 231 230 226 228 231 231 231 232 240 247 244 237 224 217 215 211 212 218 219 220 222 224 221 212 208 209 208 206 205 203 202 202 200 197 198 202 203
235 235 234 231 228 230 229 224 225 229 231 233 237 243 244 239 234 226 222 218 210 212 219 218 219 225 222 214 208 207 208 207 206 204 202 202 201 199 197 200 204 204
237 238 236 233 230 230 228 224 226 230 233 235 235 236 235 231 231 227 223 222 216 217 221 219 220 222 216 209 207 207 207 206 205 203 202 202 201 200 199 201 205 207
239 239 237 233 232 230 227 227 230 229 228 228 227 231 233 230 230 227 222 223 223 220 219 221 222 217 210 207 208 208 207 206 205 203 202 201 201 201 201 203 207 209
240 240 238 233 231 228 225 226 228 226 225 225 229 237 237 228 226 226 221 221 223 222 221 223 222 214 208 207 208 208 207 206 205 204 203 202 202 202 203 205 209 212
241 240 238 234 230 228 225 223 225 226 225 226 234 239 235 226 223 224 223 221 222 224 225 224 221 213 208 208 209 209 208 207 205 204 203 204 203 204 205 207 212 216
242 240 238 234 230 229 227 226 228 228 226 229 237 237 230 222 219 220 223 225 225 227 230 228 222 214 209 209 210 210 210 208 206 205 205 205 205 206 207 209 214 217
242 240 235 232 230 230 228 227 229 228 229 236 239 235 227 219 218 225 231 231 230 231 233 233 226 217 211 211 211 211 210 209 207 207 206 206 207 209 210 213 216 219
244 239 235 232 229 228 227 226 227 227 232 237 236 233 227 222 225 235 239 237 235 232 231 232 229 220 213 213 213 212 211 210 209 208 208 209 210 212 214 217 220 222
244 239 236 232 228 228 228 227 227 230 234 236 234 231 227 225 230 237 242 243 238 234 231 230 229 222 215 214 215 214 214 213 211 210 211 212 213 215 217 220 223 225
244 239 235 232 229 228 228 228 228 232 235 234 232 230 226 226 232 241 247 245 237 233 231 229 228 223 216 214 215 215 216 215 214 213 212 213 215 217 220 222 224 226
245 240 236 232 229 227 227 227 229 232 234 233 232 231 227 229 241 249 248 243 235 232 230 228 227 222 216 215 216 216 216 216 216 215 214 215 216 217 220 221 222 226
248 243 239 234 230 227 227 228 230 232 234 233 232 232 233 239 249 249 244 239 234 230 228 226 224 219 215 215 216 217 217 216 216 216 216 217 217 218 219 220 222 227
252 247 241 237 232 229 228 230 232 232 232 233 232 232 235 243 247 244 240 238 233 229 227 225 221 218 216 215 217 218 219 218 217 217 217 217 218 218 219 222 226 230
253 250 243 238 233 229 228 231 234 234 232 232 234 233 234 240 244 244 242 239 233 229 226 222 219 218 216 217 218 219 220 220 221 220 220 220 219 220 222 225 227 233
252 250 245 239 233 229 229 231 234 236 233 232 235 236 235 238 243 245 244 239 232 228 225 221 217 217 217 219 221 222 222 223 223 223 223 223 222 224 227 226 229 243
251 248 245 241 236 232 231 232 234 237 235 233 234 236 236 238 242 245 243 239 233 228 225 221 217 216 217 219 221 223 224 226 226 226 225 224 225 228 227 228 241 253
249 247 245 244 239 234 233 234 235 237 237 233 232 234 236 239 244 244 242 239 234 228 224 221 218 217 217 219 221 223 225 226 228 228 226 226 228 228 229 239 252 255
247 245 244 243 241 237 234 233 235 238 238 234 231 234 238 242 244 243 241 239 233 226 221 220 219 217 218 221 223 224 225 226 227 227 227 229 231 232 239 249 254 253
245 244 243 242 240 238 234 233 235 239 240 235 233 236 240 242 243 242 240 238 233 226 221 219 219 219 220 222 223 225 226 227 227 227 228 232 237 242 248 252 253 257
243 242 241 241 239 237 235 233 233 236 238 236 234 236 240 242 243 241 240 238 233 226 222 219 219 220 221 223 225 227 227 228 228 228 230 237 244 248 250 253 259 266
240 240 240 239 238 237 235 232 231 232 234 235 236 238 240 241 241 239 239 238 233 226 222 219 218 220 223 225 226 226 227 228 227 227 232 242 247 250 254 261 269 271
238 237 237 238 237 236 234 232 230 230 232 233 235 239 242 241 238 236 235 235 232 227 223 219 219 221 223 224 225 226 227 227 225 229 238 246 250 253 261 270 275 273
234 233 234 235 235 235 234 232 229 229 231 234 236 240 242 241 238 236 234 233 231 228 225 222 222 222 223 223 224 225 225 225 227 235 242 246 251 257 266 274 276 273
225 225 228 230 231 232 232 230 227 226 228 234 238 241 242 241 238 236 234 231 228 226 224 222 222 222 223 223 223 223 223 226 231 237 242 247 252 261 271 275 274 271
211 211 213 217 219 222 223 223 223 223 227 232 237 240 239 235 231 230 228 224 222 223 222 221 221 222 222 221 221 221 222 226 232 239 245 250 257 266 273 274 271 270
Height
1507 1507 1509 1512 1513 1515 1517 1519 1521 1522 1524 1526 1527 1529 1530 1532 1533 1534 1536 1538 1540 1541 1543 1545 1546 1548 1549 1550 1551 1553 1555 1557 1559 1561 1562 1563 1565 1566 1567 1568 1569 1570
1503 1504 1506 1508 1510 1512 1514 1516 1518 1520 1521 1523 1525 1527 1528 1529 1531 1532 1533 1535 1537 1539 1540 1542 1543 1545 1546 1547 1549 1550 1552 1554 1556 1558 1560 1561 1563 1564 1565 1566 1567 1568
1500 1501 1503 1505 1506 1509 1511 1513 1515 1516 1518 1520 1522 1524 1525 1526 1528 1529 1531 1532 1534 1536 1537 1539 1540 1542 1543 1545 1547 1548 1550 1552 1554 1556 1558 1559 1561 1562 1563 1564 1566 1567
1496 1498 1500 1502 1504 1506 1508 1510 1512 1513 1515 1517 1519 1521 1522 1523 1524 1526 1528 1529 1530 1532 1534 1536 1538 1539 1540 1542 1544 1546 1548 1550 1552 1554 1555 1557 1558 1560 1561 1562 1564 1565
1493 1495 1497 1499 1501 1503 1506 1507 1509 1511 1513 1514 1516 1517 1518 1520 1521 1523 1524 1526 1527 1529 1531 1533 1534 1536 1538 1539 1541 1543 1545 1547 1549 1551 1553 1554 1556 1557 1559 1561 1562 1563
1490 1492 1494 1497 1499 1500 1502 1504 1506 1508 1510 1512 1513 1515 1516 1517 1518 1520 1521 1523 1525 1526 1528 1530 1531 1533 1535 1537 1539 1541 1543 1545 1547 1549 1550 1552 1554 1555 1557 1559 1560 1562
1487 1489 1492 1494 1496 1498 1499 1502 1503 1505 1507 1509 1510 1512 1513 1514 1516 1517 1519 1521 1522 1524 1525 1527 1528 1530 1532 1534 1536 1538 1540 1542 1544 1546 1548 1550 1551 1553 1555 1557 1559 1560
1484 1487 1489 1491 1493 1494 1496 1498 1500 1502 1504 1506 1507 1509 1510 1512 1513 1515 1517 1519 1520 1521 1522 1524 1526 1528 1530 1531 1533 1535 1538 1540 1542 1544 1546 1547 1550 1552 1554 1555 1557 1558
1481 1483 1485 1487 1489 1490 1492 1495 1497 1499 1501 1502 1504 1506 1508 1509 1511 1513 1515 1516 1517 1519 1520 1521 1523 1525 1527 1529 1532 1534 1536 1538 1540 1542 1544 1546 1548 1550 1552 1554 1555 1556
1478 1479 1481 1482 1484 1486 1489 1491 1494 1496 1498 1499 1501 1503 1504 1507 1508 1510 1511 1512 1514 1515 1516 1518 1520 1522 1525 1527 1530 1533 1535 1537 1539 1541 1543 1545 1547 1549 1551 1552 1553 1555
1474 1475 1477 1478 1480 1483 1485 1488 1491 1493 1495 1496 1498 1499 1501 1503 1504 1506 1507 1508 1510 1511 1513 1515 1517 1520 1522 1525 1528 1530 1533 1535 1537 1539 1541 1543 1545 1547 1549 1550 1551 1553
1470 1471 1473 1474 1477 1479 1482 1485 1487 1489 1491 1493 1494 1496 1498 1499 1500 1501 1503 1504 1506 1507 1509 1512 1514 1517 1520 1522 1525 1527 1530 1532 1534 1537 1539 1541 1543 1545 1547 1548 1549 1550
1466 1467 1469 1471 1473 1476 1479 1482 1484 1486 1488 1489 1491 1492 1494 1495 1496 1497 1499 1501 1502 1504 1506 1509 1511 1514 1517 1520 1522 1525 1527 1529 1532 1534 1536 1539 1541 1543 1544 1546 1547 1549
1463 1464 1466 1468 1470 1473 1475 1478 1480 1482 1484 1485 1487 1488 1490 1491 1493 1494 1496 1497 1499 1500 1503 1505 1508 1511 1514 1517 1520 1523 1525 1527 1529 1532 1534 1536 1538 1540 1542 1544 1545 1546
1460 1461 1462 1464 1467 1469 1471 1473 1476 1478 1480 1481 1483 1484 1486 1488 1490 1491 1492 1493 1495 1497 1500 1502 1505 1509 1512 1516 1519 1521 1524 1526 1528 1530 1532 1534 1536 1538 1540 1541 1543 1544
1457 1457 1459 1460 1462 1465 1467 1469 1472 1474 1476 1478 1479 1481 1483 1485 1486 1487 1488 1490 1491 1494 1496 1499 1503 1507 1511 1514 1517 1520 1522 1524 1526 1528 1530 1532 1534 1535 1537 1539 1540 1541
1453 1454 1455 1456 1458 1461 1463 1466 1468 1470 1472 1474 1476 1478 1479 1481 1482 1483 1485 1486 1488 1490 1493 1496 1500 1504 1508 1511 1514 1517 1519 1522 1524 1526 1528 1529 1531 1533 1534 1536 1537 1538
1449 1450 1451 1453 1455 1457 1460 1462 1465 1467 1469 1471 1473 1474 1476 1478 1479 1480 1482 1483 1485 1487 1491 1494 1497 1501 1505 1508 1511 1514 1517 1519 1521 1523 1525 1526 1528 1530 1532 1533 1534 1535
1446 1447 1448 1450 1451 1454 1456 1459 1462 1464 1465 1468 1470 1472 1473 1475 1476 1477 1479 1480 1482 1484 1487 1491 1495 1499 1503 1506 1509 1512 1514 1516 1518 1520 1522 1524 1526 1527 1529 1530 1531 1532
1443 1444 1445 1446 1448 1450 1453 1455 1458 1461 1463 1465 1467 1468 1469 1471 1473 1474 1476 1477 1479 1481 1484 1489 1493 1497 1501 1504 1507 1509 1512 1514 1516 1518 1520 1521 1523 1525 1526 1527 1528 1529
1439 1440 1441 1443 1445 1447 1449 1452 1455 1458 1460 1462 1463 1465 1466 1468 1470 1472 1473 1475 1477 1479 1482 1486 1491 1495 1498 1501 1504 1507 1510 1512 1514 1515 1517 1519 1521 1522 1522 1524 1525 1526
1436 1437 1439 1440 1442 1444 1446 1449 1452 1455 1458 1460 1461 1462 1464 1465 1467 1469 1471 1473 1475 1477 1480 1484 1489 1493 1496 1499 1502 1504 1506 1508 1511 1513 1514 1516 1517 1518 1520 1521 1522 1522
1433 1435 1436 1437 1439 1441 1443 1446 1449 1452 1455 1457 1458 1460 1461 1463 1465 1467 1469 1470 1472 1475 1478 1482 1486 1490 1493 1497 1499 1501 1503 1506 1508 1510 1511 1513 1514 1516 1518 1519 1519 1519
1431 1432 1434 1435 1437 1439 1442 1445 1447 1450 1453 1455 1456 1457 1459 1460 1462 1464 1467 1469 1471 1474 1477 1480 1484 1487 1489 1492 1495 1498 1501 1503 1505 1507 1508 1510 1512 1513 1514 1515 1515 1515
1428 1430 1432 1434 1436 1438 1441 1443 1446 1448 1451 1453 1454 1455 1456 1458 1460 1463 1465 1467 1470 1472 1475 1478 1482 1484 1487 1490 1493 1496 1498 1500 1502 1503 1505 1507 1508 1510 1510 1511 1511 1511
1426 1429 1430 1432 1435 1437 1439 1442 1444 1447 1449 1451 1452 1454 1455 1457 1459 1461 1463 1466 1468 1471 1473 1476 1479 1482 1485 1488 1490 1493 1495 1497 1499 1500 1502 1504 1505 1506 1506 1506 1506 1506